TimeHST,TemperatureF,Dew PointF,Humidity,Sea Level PressureIn,VisibilityMPH,Wind Direction,Wind SpeedMPH,Gust SpeedMPH,PrecipitationIn,Events,Conditions,WindDirDegrees,DateUTC
12:57 AM,76.3,69.1,78,30.08,10.0,ENE,6.9,-,N/A,,Scattered Clouds,70,2013-07-20 10:57:00
1:57 AM,75.9,70.0,82,30.06,10.0,East,6.9,-,N/A,,Scattered Clouds,80,2013-07-20 11:57:00
2:57 AM,75.6,69.1,80,30.04,10.0,ENE,6.9,-,N/A,,Scattered Clouds,70,2013-07-20 12:57:00
3:57 AM,74.8,69.1,82,30.04,10.0,East,3.5,-,N/A,,Mostly Cloudy,80,2013-07-20 13:57:00
4:57 AM,74.8,68.0,79,30.04,10.0,ENE,5.8,-,N/A,,Scattered Clouds,60,2013-07-20 14:57:00
5:57 AM,73.9,68.0,82,30.04,10.0,ENE,4.6,-,N/A,,Scattered Clouds,70,2013-07-20 15:57:00
6:57 AM,75.6,68.0,77,30.06,10.0,ENE,4.6,-,N/A,,Scattered Clouds,70,2013-07-20 16:57:00
7:57 AM,79.0,68.0,69,30.06,10.0,ENE,6.9,-,N/A,,Scattered Clouds,60,2013-07-20 17:57:00
8:57 AM,79.0,68.0,69,30.08,10.0,ENE,8.1,-,N/A,,Scattered Clouds,60,2013-07-20 18:57:00
9:57 AM,78.8,68.0,69,30.08,10.0,Variable,6.9,-,N/A,,Mostly Cloudy,0,2013-07-20 19:57:00
10:57 AM,80.6,68.0,65,30.07,10.0,ENE,8.1,-,N/A,,Scattered Clouds,60,2013-07-20 20:57:00
11:57 AM,82.4,68.0,62,30.06,10.0,ENE,8.1,-,N/A,,Scattered Clouds,60,2013-07-20 21:57:00
12:57 PM,82.4,68.0,62,30.05,10.0,NE,9.2,-,N/A,,Clear,50,2013-07-20 22:57:00
1:57 PM,82.4,66.9,59,30.04,10.0,ENE,11.5,-,N/A,,Partly Cloudy,60,2013-07-20 23:57:00
2:57 PM,82.4,66.9,59,30.03,10.0,ENE,10.4,-,N/A,,Partly Cloudy,70,2013-07-21 00:57:00
3:57 PM,84.2,68.0,58,30.02,10.0,ENE,10.4,-,N/A,,Partly Cloudy,60,2013-07-21 01:57:00
4:57 PM,84.2,69.1,60,30.01,10.0,ENE,10.4,-,N/A,,Partly Cloudy,60,2013-07-21 02:57:00
5:57 PM,84.2,68.0,58,30.01,10.0,ENE,9.2,-,N/A,,Partly Cloudy,60,2013-07-21 03:57:00
6:57 PM,82.4,68.0,62,30.02,10.0,Variable,6.9,-,N/A,,Partly Cloudy,0,2013-07-21 04:57:00
7:57 PM,80.6,68.0,65,30.03,10.0,ENE,10.4,-,N/A,,Mostly Cloudy,60,2013-07-21 05:57:00
8:57 PM,77.0,69.1,76,30.04,10.0,ENE,9.2,16.1,N/A,,Scattered Clouds,70,2013-07-21 06:57:00
9:57 PM,75.2,68.0,78,30.05,10.0,ENE,9.2,-,N/A,,Scattered Clouds,70,2013-07-21 07:57:00
10:57 PM,75.2,69.1,81,30.05,10.0,East,12.7,23.0,N/A,,Mostly Cloudy,80,2013-07-21 08:57:00
11:57 PM,75.2,68.0,78,30.04,10.0,East,9.2,-,0.00,,Overcast,80,2013-07-21 09:57:00